FW9692 Weather Reports


time (UTC)temp
C
wind
direction
speed
KPH
gust
KPH
rain 1hr
cm
rain 24hr
cm
rain mn
cm
humidity
%
barometer
mb
20260510204545 25 36 48.3 62.8 0.00 0.00 0.00 44 1002.3
20260510203043 26 34 45.1 59.5 0.00 0.00 0.00 43 1002.1
20260510201544 26 38 56.3 70.8 0.00 0.00 0.00 41 1001.9
20260510200051 26 23 56.3 75.6 0.00 0.00 0.00 41 1002.1
20260510194547 26 32 53.1 75.6 0.00 0.00 0.00 40 1002.0
20260510193042 26 17 46.7 64.4 0.00 0.00 0.00 40 1002.0
20260510191600 26 15 45.1 62.8 0.00 0.00 0.00 40 1001.8
20260510190042 26 11 48.3 61.2 0.00 0.00 0.00 40 1001.8
20260510184532 25 23 49.9 66.0 0.00 0.00 0.00 41 1001.6
20260510183032 25 27 53.1 67.6 0.00 0.00 0.00 42 1001.8
20260510181531 24 333 54.7 72.4 0.00 0.00 0.00 44 1001.9
20260510180019 24 347 53.1 67.6 0.00 0.00 0.00 43 1001.9
20260510174518 23 344 48.3 67.6 0.00 0.00 0.00 44 1001.9
20260510173016 23 351 56.3 70.8 0.00 0.00 0.00 43 1001.6
20260510171518 23 10 48.3 70.8 0.00 0.00 0.00 44 1001.4
20260510170038 23 351 51.5 72.4 0.00 0.00 0.00 46 1001.1
20260510164538 23 344 56.3 75.6 0.00 0.00 0.00 46 1001.2
20260510163035 23 338 59.5 74.0 0.00 0.00 0.00 45 1001.1
20260510161534 23 324 57.9 77.2 0.00 0.00 0.00 43 1001.0
20260510160020 23 341 61.2 74.0 0.00 0.00 0.00 44 1000.7
20260510154518 23 326 64.4 82.1 0.00 0.00 0.00 45 1000.6
20260510153018 24 347 49.9 74.0 0.00 0.00 0.00 41 1000.4
20260510151511 25 348 48.3 61.2 0.00 0.00 0.00 25 999.8
20260510150013 26 333 45.1 62.8 0.00 0.00 0.00 22 999.6
20260510144519 26 351 40.2 49.9 0.00 0.00 0.00 18 999.2
20260510143016 25 334 33.8 41.8 0.00 0.00 0.00 22 999.0
20260510141505 26 313 22.5 29.0 0.00 0.00 0.00 23 998.6
20260510140010 25 310 19.3 29.0 0.00 0.00 0.00 24 998.1
20260510134508 25 13 16.1 32.2 0.00 0.00 0.00 25 997.7
20260510133004 24 289 25.7 51.5 0.00 0.00 0.00 26 997.4
20260510131559 23 234 27.4 33.8 0.00 0.00 0.00 29 996.5
20260510130101 22 223 27.4 33.8 0.00 0.00 0.00 31 996.4
20260510124612 21 225 25.7 32.2 0.00 0.00 0.00 32 996.2
20260510123058 22 227 30.6 37.0 0.00 0.00 0.00 31 996.0
20260510121555 22 227 30.6 35.4 0.00 0.00 0.00 30 995.9
20260510120053 22 234 30.6 35.4 0.00 0.00 0.00 29 995.9
20260510114551 22 235 29.0 33.8 0.00 0.00 0.00 29 995.8
20260510113051 21 236 25.7 32.2 0.00 0.00 0.00 30 995.7
20260510111549 21 246 25.7 32.2 0.00 0.00 0.00 28 995.7
20260510110044 21 238 27.4 32.2 0.00 0.00 0.00 28 995.7
20260510104543 22 235 27.4 35.4 0.00 0.00 0.00 27 995.7
20260510103040 21 242 27.4 32.2 0.00 0.00 0.00 28 995.5
20260510101541 21 236 25.7 32.2 0.00 0.00 0.00 27 995.5
20260510100047 21 230 25.7 30.6 0.00 0.00 0.00 27 995.3
20260510094559 21 232 27.4 30.6 0.00 0.00 0.00 24 995.2
20260510093102 22 227 24.1 30.6 0.00 0.00 0.00 23 995.1
20260510091547 22 216 25.7 30.6 0.00 0.00 0.00 21 995.0
20260510090051 22 223 25.7 30.6 0.00 0.00 0.00 22 995.1
20260510084551 22 221 25.7 32.2 0.00 0.00 0.00 20 995.1
20260510083051 22 216 25.7 32.2 0.00 0.00 0.00 22 995.2
20260510081547 21 205 24.1 30.6 0.00 0.00 0.00 24 995.3
20260510080042 21 214 24.1 30.6 0.00 0.00 0.00 24 995.3
20260510074543 22 221 25.7 30.6 0.00 0.00 0.00 24 995.4
20260510073046 22 217 27.4 32.2 0.00 0.00 0.00 24 995.5
20260510071548 22 211 24.1 29.0 0.00 0.00 0.00 23 995.5
20260510070035 23 207 25.7 30.6 0.00 0.00 0.00 22 995.7
20260510064533 23 205 24.1 29.0 0.00 0.00 0.00 22 995.6
20260510063033 23 208 24.1 32.2 0.00 0.00 0.00 22 995.9
20260510061533 23 192 22.5 27.4 0.00 0.00 0.00 22 995.9
20260510060030 23 192 22.5 29.0 0.00 0.00 0.00 22 996.0
20260510054532 25 192 25.7 35.4 0.00 0.00 0.00 21 996.1
20260510053048 25 175 27.4 35.4 0.00 0.00 0.00 20 996.0
20260510051529 25 178 32.2 40.2 0.00 0.00 0.00 19 996.0
20260510050028 26 175 32.2 40.2 0.00 0.00 0.00 19 996.2
20260510044528 26 167 33.8 41.8 0.00 0.00 0.00 18 996.2
20260510043039 26 180 33.8 41.8 0.00 0.00 0.00 17 996.2
20260510041529 27 167 32.2 43.5 0.00 0.00 0.00 15 996.2
20260510040040 27 170 32.2 38.6 0.00 0.00 0.00 14 996.2
20260510034534 28 186 29.0 35.4 0.00 0.00 0.00 14 996.1
20260510033033 28 170 32.2 35.4 0.00 0.00 0.00 13 995.9
20260510031534 28 167 30.6 35.4 0.00 0.00 0.00 13 995.8
20260510030018 29 171 27.4 37.0 0.00 0.00 0.00 13 995.7
20260510024518 29 163 27.4 32.2 0.00 0.00 0.00 13 995.6
20260510023016 30 169 20.9 30.6 0.00 0.00 0.00 12 995.3
20260510021531 30 154 22.5 27.4 0.00 0.00 0.00 11 995.3
20260510020016 30 153 20.9 27.4 0.00 0.00 0.00 12 995.1
20260510014521 31 159 20.9 27.4 0.00 0.00 0.00 10 995.0
20260510013024 31 151 22.5 29.0 0.00 0.00 0.00 10 994.9
20260510011522 32 144 27.4 32.2 0.00 0.00 0.00 10 994.7
20260510010019 32 132 19.3 30.6 0.00 0.00 0.00 9 994.7
20260510004526 33 203 11.3 25.7 0.00 0.00 0.00 8 994.8
20260510003026 33 187 12.9 25.7 0.00 0.00 0.00 8 994.8
20260510001522 33 193 8.0 32.2 0.00 0.00 0.00 8 994.8
20260510000028 33 177 17.7 25.7 0.00 0.00 0.00 8 994.9
20260509234519 33 173 16.1 33.8 0.00 0.00 0.00 8 994.9
20260509233016 33 198 16.1 29.0 0.00 0.00 0.00 8 995.1
20260509231515 33 243 14.5 25.7 0.00 0.00 0.00 8 995.2
20260509230015 33 221 12.9 22.5 0.00 0.00 0.00 8 995.3
20260509224512 33 210 11.3 24.1 0.00 0.00 0.00 8 995.5
20260509223016 33 213 17.7 37.0 0.00 0.00 0.00 8 995.6
20260509221515 33 301 4.8 24.1 0.00 0.00 0.00 8 995.8
20260509220017 33 219 14.5 25.7 0.00 0.00 0.00 8 995.9
20260509214508 33 208 22.5 41.8 0.00 0.00 0.00 9 996.1
20260509213051 33 170 9.7 25.7 0.00 0.00 0.00 9 996.3
20260509211549 33 103 9.7 29.0 0.00 0.00 0.00 9 996.6
20260509210049 33 171 14.5 17.7 0.00 0.00 0.00 9 996.9